CW1020 Weather Reports


time (UTC)temp
C
wind
direction
speed
KPH
gust
KPH
rain 1hr
cm
rain 24hr
cm
rain mn
cm
humidity
%
barometer
mb
20260504050504 9 303 8.0 6.4 0.00 0.00 0.00 72 1014.3
20260504050005 10 310 6.4 14.5 0.00 0.00 0.00 72 1014.1
20260504045503 10 321 3.2 14.5 0.00 0.00 0.00 71 1014.0
20260504044003 10 321 3.2 9.7 0.00 0.00 0.00 71 1013.9
20260504043503 10 330 6.4 3.2 0.00 0.00 0.00 71 1013.8
20260504043003 10 279 8.0 14.5 0.00 0.00 0.00 71 1013.8
20260504042503 10 317 9.7 12.9 0.00 0.00 0.00 71 1013.6
20260504042004 10 307 12.9 20.9 0.00 0.00 0.00 71 1013.5
20260504041003 10 316 12.9 24.1 0.00 0.00 0.00 71 1013.3
20260504040503 10 313 11.3 19.3 0.00 0.00 0.00 71 1013.2
20260504040004 10 308 9.7 17.7 0.00 0.00 0.00 70 1013.2
20260504035003 11 299 9.7 12.9 0.00 0.00 0.00 69 1013.0
20260504034003 11 303 12.9 19.3 0.00 0.00 0.00 68 1012.9
20260504033504 11 291 17.7 19.3 0.00 0.00 0.00 67 1012.8
20260504033004 12 282 19.3 25.7 0.00 0.00 0.00 67 1012.7
20260504032503 12 288 16.1 25.7 0.00 0.00 0.00 67 1012.5
20260504031503 12 290 14.5 22.5 0.00 0.00 0.00 66 1012.3
20260504031003 12 287 14.5 20.9 0.00 0.00 0.00 66 1012.2
20260504030503 12 297 14.5 29.0 0.00 0.00 0.00 66 1012.3
20260504030003 12 291 16.1 22.5 0.00 0.00 0.00 66 1012.3
20260504025503 12 302 16.1 24.1 0.00 0.00 0.00 65 1012.0
20260504025004 13 299 16.1 22.5 0.00 0.00 0.00 65 1012.2
20260504023503 13 315 12.9 24.1 0.00 0.00 0.00 65 1012.0
20260504023004 13 286 12.9 19.3 0.00 0.00 0.00 64 1012.1
20260504022504 13 277 12.9 16.1 0.00 0.00 0.00 64 1012.2
20260504022003 13 302 12.9 25.7 0.00 0.00 0.00 64 1012.1
20260504021503 13 304 14.5 20.9 0.00 0.00 0.00 63 1011.9
20260504021003 13 306 14.5 19.3 0.00 0.00 0.00 63 1011.6
20260504020503 13 307 16.1 20.9 0.00 0.00 0.00 62 1011.4
20260504020004 14 305 17.7 20.9 0.00 0.00 0.00 62 1011.5
20260504015504 14 309 17.7 27.4 0.00 0.00 0.00 61 1011.7
20260504015004 14 308 16.1 22.5 0.00 0.00 0.00 61 1011.5
20260504014503 15 306 14.5 24.1 0.00 0.00 0.00 60 1011.6
20260504014003 15 309 14.5 19.3 0.00 0.00 0.00 59 1011.6
20260504013503 15 278 14.5 17.7 0.00 0.00 0.00 59 1011.6
20260504013003 15 283 14.5 24.1 0.00 0.00 0.00 59 1011.6
20260504012003 15 302 14.5 24.1 0.00 0.00 0.00 59 1011.6
20260504011504 15 314 14.5 29.0 0.00 0.00 0.00 58 1011.5
20260504011003 16 298 17.7 20.9 0.00 0.00 0.00 57 1011.6
20260504010503 16 280 16.1 22.5 0.00 0.00 0.00 57 1011.5
20260504010005 16 310 16.1 27.4 0.00 0.00 0.00 57 1011.6
20260504005504 16 298 16.1 19.3 0.00 0.00 0.00 57 1011.8
20260504005004 16 307 16.1 22.5 0.00 0.00 0.00 56 1011.7
20260504004503 16 304 16.1 24.1 0.00 0.00 0.00 57 1011.7
20260504004003 15 312 14.5 30.6 0.00 0.00 0.00 56 1011.6
20260504003503 16 316 16.1 22.5 0.00 0.00 0.00 56 1011.6
20260504003004 16 294 16.1 19.3 0.00 0.00 0.00 56 1011.5
20260504002003 16 291 14.5 25.7 0.00 0.00 0.00 56 1011.4
20260504001504 16 300 16.1 22.5 0.00 0.00 0.00 57 1011.4
20260504001003 16 309 17.7 25.7 0.00 0.00 0.00 57 1011.4
20260504000504 16 299 16.1 22.5 0.00 0.00 0.00 57 1011.3
20260504000003 16 299 17.7 22.5 0.00 0.00 0.00 56 1011.6
20260503235003 16 311 17.7 30.6 0.00 0.00 0.00 57 1011.7
20260503234503 16 320 16.1 25.7 0.00 0.00 0.00 57 1011.7
20260503234004 16 308 17.7 22.5 0.00 0.00 0.00 57 1011.7
20260503233503 16 308 19.3 25.7 0.00 0.00 0.00 57 1011.7
20260503233005 16 310 19.3 29.0 0.00 0.00 0.00 57 1011.7
20260503232503 16 301 20.9 30.6 0.00 0.00 0.00 56 1011.7
20260503232004 16 295 22.5 29.0 0.00 0.00 0.00 58 1011.7
20260503231504 16 318 20.9 30.6 0.00 0.00 0.00 58 1011.7
20260503231003 16 309 19.3 29.0 0.00 0.00 0.00 58 1011.6
20260503230504 16 306 19.3 27.4 0.00 0.00 0.00 58 1011.6
20260503230003 16 305 19.3 25.7 0.00 0.00 0.00 58 1011.8
20260503225504 16 311 19.3 25.7 0.00 0.00 0.00 56 1011.9
20260503225003 17 316 20.9 29.0 0.00 0.00 0.00 57 1011.9
20260503224503 17 317 22.5 29.0 0.00 0.00 0.00 57 1012.0
20260503224005 16 317 20.9 29.0 0.00 0.00 0.00 57 1011.9
20260503223503 17 318 19.3 30.6 0.00 0.00 0.00 56 1011.9
20260503223004 17 320 19.3 29.0 0.00 0.00 0.00 58 1012.0
20260503222503 16 319 20.9 29.0 0.00 0.00 0.00 59 1011.9
20260503222005 16 319 20.9 32.2 0.00 0.00 0.00 58 1012.0
20260503221503 16 320 19.3 35.4 0.00 0.00 0.00 57 1012.0
20260503221003 16 316 16.1 27.4 0.00 0.00 0.00 58 1012.1
20260503220504 16 307 19.3 25.7 0.00 0.00 0.00 58 1012.1
20260503220003 17 316 19.3 32.2 0.00 0.00 0.00 58 1012.2
20260503215504 16 317 19.3 32.2 0.00 0.00 0.00 59 1012.1
20260503215003 16 315 20.9 25.7 0.00 0.00 0.00 58 1012.2
20260503214503 16 319 20.9 30.6 0.00 0.00 0.00 59 1012.2
20260503214004 17 314 22.5 24.1 0.00 0.00 0.00 58 1012.1
20260503213503 16 315 24.1 38.6 0.00 0.00 0.00 59 1012.0
20260503213003 16 317 22.5 33.8 0.00 0.00 0.00 58 1012.1
20260503212505 17 313 24.1 29.0 0.00 0.00 0.00 57 1012.0
20260503212005 17 318 22.5 35.4 0.00 0.00 0.00 57 1012.1
20260503211006 17 319 19.3 33.8 0.00 0.00 0.00 56 1011.9
20260503210507 17 319 22.5 20.9 0.00 0.00 0.00 57 1011.9
20260503210006 17 317 24.1 30.6 0.00 0.00 0.00 56 1012.1
20260503205506 17 316 22.5 25.7 0.00 0.00 0.00 56 1012.2
20260503205006 17 314 19.3 33.8 0.00 0.00 0.00 57 1012.1
20260503204006 18 320 19.3 29.0 0.00 0.00 0.00 54 1012.2
20260503203505 17 320 16.1 29.0 0.00 0.00 0.00 54 1012.3
20260503203005 17 309 14.5 25.7 0.00 0.00 0.00 56 1012.3
20260503202006 17 317 16.1 29.0 0.00 0.00 0.00 54 1012.2
20260503201506 18 323 17.7 27.4 0.00 0.00 0.00 53 1012.3
20260503200506 18 319 17.7 24.1 0.00 0.00 0.00 51 1012.4
20260503200006 18 319 16.1 27.4 0.00 0.00 0.00 49 1012.8
20260503195006 18 317 12.9 25.7 0.00 0.00 0.00 50 1012.7
20260503194505 18 312 8.0 22.5 0.00 0.00 0.00 50 1012.9
20260503194006 17 322 6.4 24.1 0.00 0.00 0.00 51 1013.0
20260503193506 17 324 6.4 12.9 0.00 0.00 0.00 50 1013.0
20260503193007 17 289 6.4 14.5 0.00 0.00 0.00 51 1013.1
20260503192506 18 329 8.0 12.9 0.00 0.00 0.00 50 1013.1
20260503192006 18 305 8.0 14.5 0.00 0.00 0.00 50 1013.1
20260503191505 18 286 11.3 16.1 0.00 0.00 0.00 51 1013.2
20260503191006 17 318 12.9 20.9 0.00 0.00 0.00 53 1013.1
20260503190506 17 319 14.5 22.5 0.00 0.00 0.00 53 1013.3
20260503190007 18 313 12.9 19.3 0.00 0.00 0.00 51 1013.2
20260503185506 17 315 12.9 20.9 0.00 0.00 0.00 50 1013.2
20260503184007 17 319 16.1 20.9 0.00 0.00 0.00 56 1013.3
20260503183505 16 318 14.5 25.7 0.00 0.00 0.00 56 1013.3
20260503183006 16 321 17.7 20.9 0.00 0.00 0.00 58 1013.3
20260503182506 16 312 17.7 22.5 0.00 0.00 0.00 59 1013.4
20260503182006 16 317 19.3 24.1 0.00 0.00 0.00 61 1013.5
20260503181506 15 316 19.3 24.1 0.00 0.00 0.00 61 1013.6
20260503181006 15 318 19.3 29.0 0.00 0.00 0.00 64 1013.5
20260503180505 14 314 19.3 25.7 0.00 0.00 0.00 65 1013.6
20260503180006 15 322 16.1 29.0 0.00 0.00 0.00 65 1013.7
20260503175006 14 320 20.9 29.0 0.00 0.00 0.00 64 1013.5
20260503174506 15 320 19.3 32.2 0.00 0.00 0.00 64 1013.4
20260503174006 15 320 20.9 29.0 0.00 0.00 0.00 64 1013.5
20260503173506 15 314 19.3 30.6 0.00 0.00 0.00 64 1013.3
20260503173502 15 313 20.9 20.9 0.00 0.00 0.00 64 1013.3
20260503173006 15 318 19.3 33.8 0.00 0.00 0.00 63 1013.3
20260503171006 17 329 11.3 20.9 0.00 0.00 0.00 49 1013.2
20260503170507 20 323 12.9 20.9 0.00 0.00 0.00 38 1013.2
20260503151002 18 85 11.3 24.1 0.00 0.00 0.00 27 1012.9
20260503131002 8 152 6.4 11.3 0.00 0.00 0.00 52 1012.6
20260503130503 8 151 6.4 11.3 0.00 0.00 0.00 52 1012.7
20260503110503 8 0 0.0 0.0 0.00 0.00 0.00 50 1013.3
20260503090503 12 161 1.6 8.0 0.00 0.00 0.00 38 1014.0
20260503081503 14 168 3.2 8.0 0.00 0.00 0.00 34 1014.1
20260503081003 14 100 3.2 4.8 0.00 0.00 0.00 34 1014.0
20260503080502 15 94 4.8 4.8 0.00 0.00 0.00 33 1014.3
20260503072503 18 201 4.8 9.7 0.00 0.00 0.00 25 1014.3
20260503072002 17 243 6.4 11.3 0.00 0.00 0.00 25 1014.3
20260503071504 17 238 6.4 8.0 0.00 0.00 0.00 26 1014.1
20260503071003 17 249 3.2 11.3 0.00 0.00 0.00 26 1014.0